This demonstration page uses our WeatherBlox Daily Observations layout. Learn more.

Left ArrowRight Arrow

41.86663, -103.66717

Hourly Observations for November 20, 2016

Temp ( °F °C ) Dew Point ( °F °C ) Humidity (%) Winds ( mph kmh ) Pressure ( in mb ) Visibility ( mi km ) Precip ( " mm )
12:53 am 00:53 Clear 24 -4.4 20 -6.7 84 84 N N/A 30.11 1020 10 16 N/A
1:53 am 01:53 Clear 20 -6.7 16 -8.9 85 85 NNE 8 13 30.13 1020 10 16 N/A
2:53 am 02:53 Clear 20 -6.7 17 -8.3 89 89 NW 3 6 30.13 1020 10 16 N/A
3:53 am 03:53 Clear with Light Snow 20 -6.7 17 -8.3 89 89 NNW 5 7 30.14 1021 9 14 N/A
4:53 am 04:53 Clear 20 -6.7 16 -8.9 85 85 NNW 6 9 30.15 1021 10 16 N/A
5:53 am 05:53 Clear 20 -6.7 17 -8.3 89 89 W 5 7 30.15 1021 10 16 N/A
6:53 am 06:53 Sunny 20 -6.7 16 -8.9 85 85 WSW 5 7 30.17 1022 10 16 N/A
7:53 am 07:53 Sunny 27 -2.8 21 -6.1 78 78 NNW 3 6 30.18 1022 10 16 N/A
8:53 am 08:53 Sunny 34 1.1 25 -3.9 70 70 W 5 7 30.17 1022 10 16 N/A
9:53 am 09:53 Sunny 45 7.2 27 -2.8 49 49 WSW 5 7 30.14 1021 10 16 N/A
10:53 am 10:53 Sunny 55 12.8 26 -3.3 33 33 WSW 3 6 30.09 1019 10 16 N/A
11:53 am 11:53 Sunny 61 16.1 25 -3.9 25 25 NW 7 11 30.05 1018 10 16 N/A
12:53 pm 12:53 Sunny 63 17.2 26 -3.3 25 25 WSW 7 11 30.02 1017 9 14 N/A
1:53 pm 13:53 Sunny 66 18.9 27 -2.8 23 23 S 9 15 30.00 1016 10 16 N/A
2:53 pm 14:53 Sunny 66 18.9 29 -1.7 25 25 S 9 15 30.00 1016 10 16 N/A
3:53 pm 15:53 Sunny 57 13.9 30 -1.1 36 36 E 7 11 30.03 1017 10 16 N/A
4:53 pm 16:53 Clear 45 7.2 28 -2.2 52 52 E 9 15 30.06 1018 10 16 N/A
5:53 pm 17:53 Clear 41 5 26 -3.3 55 55 E 10 17 30.07 1018 10 16 N/A
6:53 pm 18:53 Clear 40 4.4 26 -3.3 58 58 E 6 9 30.07 1018 10 16 N/A
7:53 pm 19:53 Clear 39 3.9 28 -2.2 65 65 E 8 13 30.07 1018 10 16 N/A
8:53 pm 20:53 Clear with Light Snow 38 3.3 28 -2.2 68 68 E 9 15 30.04 1017 10 16 N/A
9:53 pm 21:53 Clear with Light Snow 36 2.2 29 -1.7 76 76 ESE 8 13 30.00 1016 9 14 N/A
10:53 pm 22:53 Clear 37 2.8 29 -1.7 73 73 SE 6 9 29.96 1015 10 16 N/A
11:53 pm 23:53 Clear 36 2.2 29 -1.7 76 76 NE 6 9 29.93 1014 10 16 N/A

Powered by AerisWeather